Погода в Мирном

Россия / Кемеровская область (Кузбасс)     54°36′45″N   85°55′21″E
темп.,
°C
ветер,
м/с
пор.,
м/с
влажн.,
%
обл.,
%
осадки,
мм/ч
давл.,
гПа
погр.,
м
30 ноября, вт
вт3001:00−13ююв229290 0.0 103324
04:00−14ю229186 0.0 103222
07:00−14ююв329090 0.0 103127
10:00−14ю3389100 0.0 103141
13:00−6ююз398183 0.0 1029236
16:00−7ююз3781100 0.0 1029139
19:00−10ююв348699 0.0 102947
22:00−8ююз388093 0.0 1029133
1 декабря, ср
ср101:00−12ю22895 0.0 103024
04:00−15ююв22935 0.0 103017
07:00−16ююв11955 0.0 103110
10:00−15ю339464 0.0 103229
13:00−8ю368862 0.0 1031143
16:00−9ю238974 0.0 103144
19:00−13ююв22915 0.0 103118
22:00−13ююв22898 0.0 103024
2 декабря, чт
чт201:00−14ююв229191 0.0 103012
04:00−13ю33885 0.0 102928
07:00−15ююв118963 0.0 10289
10:00−16ююв229376 0.0 102811
13:00−7ююв228855 0.0 102635
16:00−8ююв22935 0.0 102511
19:00−14ююв22955 0.0 102412
22:00−15ююв22925 0.0 102411
3 декабря, пт
пт301:00−13ююв33865 0.0 102227
04:00−10ююв33844 0.0 102035
07:00−9ююв34813 0.0 101850
10:00−8ююв348138 0.0 101549
13:000ю41475100 0.0 1013317
16:00+1ююз81758100 0.0 1011520
19:000юз81793100 0.1 1011758
22:00+1юз81692100 0.6 1012803
4 декабря, сб
сб401:000зюз71297100 0.8 10151026
04:00−2зюз61184100 0.1 1018364
07:00−4юз5118514 0.1 1021279
10:00−6юз7148769 0.0 1024527
13:00−5юз71486100 0.0 1026778
16:00−5зюз71484100 0.1 1027774
19:00−5юз71487100 0.3 1028780
22:00−5зюз61385100 0.0 1030646